Location: Usti nad Orlici
(49.9830°N, 16.4000°E)
Time: 08:40:01
(UTC+02:00)

ISS - Pass Details

Date: 27 March 2019
Orbit: 408 x 410 km, 51.6° (Epoch: 22 April)

Event Time Altitude Azimuth Distance (km) Brightness Sun altitude
Rises 20:09:28 0° 269° (W) 2,336 1.1 -17.9°
Reaches altitude 10° 20:11:34 10° 272° (W) 1,474 0.0 -18.2°
Maximum altitude 20:14:51 64° 355° (N) 456 -3.5 -18.7°
Enters shadow 20:15:27 51° 49° (NE) 524 -3.5 -18.8°
